Regional Weather Roundup
Issued by NWS

Home | Current Version | Previous Version | Text Only | Print | Product List | Glossary On
Versions: 1 2 3 4 5 6 7 8 9 10 11 12 13 14 15 16 17 18 19 20 21 22 23 24 25 26 27 28 29 30 31 32 33 34 35 36 37 38 39 40 41 42 43 44 45 46 47 48 49 50
000
ASUS44 KJAN 030810
RWRMS

MISSISSIPPI HOURLY WEATHER ROUNDUP
NATIONAL WEATHER SERVICE JACKSON MS
300 AM CDT TUE MAY 03 2016

NOTE: "FAIR: INDICATES FEW OR NO CLOUDS BELOW 12,000 FEET WITH NO
SIGNIFICANT WEATHER AND/OR OBSTRUCTIONS TO VISIBILITY.

MSZ001>002-007>008-010>013-018>021-025>028-034>036-030900-
NORTHWEST MISSISSIPPI

CITY           SKY/WX    TMP DP  RH WIND       PRES   REMARKS
BATESVILLE     CLOUDY    58  57  95 CALM      29.98S
CLEVELAND      FAIR      59  59 100 NW8       29.97F
GREENWOOD      MOCLDY    61  59  93 CALM      29.96F
GREENVILLE     CLEAR     60  56  86 NW9       29.97F
OLIVE BRANCH   CLOUDY    57  57 100 N7        29.97F
OXFORD         CLOUDY    57  57 100 CALM      29.98S FOG
TUNICA         MOSUNNY   55  52  88 NW5       29.99S
WINONA         CLOUDY    60  60  98 CALM      29.95F
$$

MSZ003>006-009-014>017-022>024-029>033-037>039-030900-
NORTHEAST MISSISSIPPI

CITY           SKY/WX    TMP DP  RH WIND       PRES   REMARKS
COLUMBUS AFB   MOCLDY    62  59  90 NW3       29.93
CORINTH        CLOUDY    59  57  94 CALM      29.95S
GOLDN TRIANGLE CLOUDY    63  57  82 NW5       29.94S
STARKVILLE     CLOUDY    61  59  94 CALM      29.94S
TUPELO         PTCLDY    60  57  89 CALM      29.94F
$$

MSZ040-058-030900-
CENTRAL MISSISSIPPI

CITY           SKY/WX    TMP DP  RH WIND       PRES   REMARKS
JACKSON INTL   CLOUDY    63  60  90 N5        29.96S
JACKSON HAWKNS CLOUDY    62  60  93 N3        29.96S
MADISON        CLOUDY    61  59  94 CALM      29.96F
MERIDIAN KEY   CLOUDY    64  62  93 N7        29.94S
MERIDIAN NAS   CLOUDY    64  61  90 NW6       29.94F
VICKSBURG TVR  CLOUDY    65  60  84 N9        29.97F
VICKSBURG VKS  CLOUDY    64  61  88 CALM      29.97F
$$

MSZ059>079-030900-
SOUTH MISSISSIPPI

CITY           SKY/WX    TMP DP  RH WIND       PRES   REMARKS
BROOKHAVEN     CLOUDY   N/A N/A N/A N8        29.97S HAZE
COLUMBIA       CLOUDY    66  66 100 N5        29.97F
HATTIESBURG    CLOUDY    68  66  93 N8        29.93S
MCCOMB         CLOUDY    66  65  96 N8        29.95F
NATCHEZ        CLOUDY    63  59  88 NW5       29.98S
PINE BELT      MOCLDY    64  63  94 N7        29.94S
$$

MSZ080>082-030900-
COASTAL MISSISSIPPI

CITY           SKY/WX    TMP DP  RH WIND       PRES   REMARKS
BILOXI         NOT AVBL
PASCAGOULA     CLOUDY    72  72 100 CALM      29.90S FOG
GULFPORT       PTCLDY    69  68  96 CALM      29.89F FOG
$$



USA.gov is the U.S. government's official web portal to all federal, state and local government web resources and services.